Powrót do katalogu

CZ-4C R/B

AktywnyLEO
NORAD 47537·ROCKET BODY·🇨🇳 China

Wystrzelony Jan 29, 2021 z Jiuquan Satellite Launch Center

Loading…

Następne Przeloty (najbliższe 24 godziny)

TLE

ŚwieżeSource: Space-Track

Epoka: Sep 14, 2026, 10:42 UTC

1 47537U 21007F   26257.44633548 -.00000033  00000-0  53055-4 0  9994
2 47537  63.4462  69.3946 0311218   1.3692 358.8127 13.68051518281000

Śledź CZ-4C R/B w czasie rzeczywistym z AllMySat

Download on the App Store